{"data":{"norad_id":67329,"intl_designator":"2026-002AA","name":"STARLINK-36496","alt_names":[],"object_type":"PAYLOAD","status":"ACTIVE","operator":null,"country":"US","launch_date":"2026-01-04","launch_site_code":"AFETR","launch_vehicle":null,"mission":null,"orbit_class":"UNKNOWN","rcs_meters":null,"size_class":null,"mass_kg":null,"dimensions":null,"purposes":["comms"],"wikipedia_slug":null,"has_3d_model":false,"image_url":null,"decayed_at":null,"tle_current":{"epoch":"2026-05-25T00:36:01.628640Z","epoch_age_seconds":66175,"freshness":"FRESH","line1":"1 67329U 26002AA  26145.02501885  .00025831  00000+0  94478-3 0  9997","line2":"2 67329  43.0005 254.1464 0002435 278.6966  81.3610 15.27583562 22732","mean_motion":15.27583562,"eccentricity":0.0002435,"inclination_deg":43.0005,"raan_deg":254.1464,"arg_perigee_deg":278.6966,"mean_anomaly_deg":81.361,"bstar":0.00094478,"rev_number":2273,"period_min":94.266528903641,"perigee_km":481.36773393372,"apogee_km":484.7091263682,"semimajor_km":6861.175430151,"source":"CELESTRAK","updated_at":"2026-05-25T13:38:21.520265Z"}}}